GW0203 Weather Reports


Display with metric or nautical units.
time (UTC)temp
F
wind
direction
speed
MPH
gust
MPH
rain 1hr
in
rain 24hr
in
rain mn
in
humidity
%
barometer
mb
20260510030732 51 172 0.0 1.0 0.00 0.33 0.33 99 1011.4
20260510025231 51 23 0.0 0.0 0.02 0.33 0.33 99 1011.5
20260510023731 51 180 0.0 2.0 0.00 0.32 0.32 99 1011.4
20260510022231 51 90 0.0 2.0 0.02 0.32 0.32 99 1011.3
20260510020730 51 106 0.0 1.0 0.05 0.31 0.31 99 1011.7
20260510015229 52 69 0.0 3.0 0.05 0.29 0.29 98 1011.9
20260510013729 52 6 0.0 2.0 0.00 0.28 0.28 98 1012.2
20260510012226 51 14 0.0 1.0 0.00 0.28 0.28 98 1011.9
20260510010724 51 75 0.0 1.0 0.00 0.28 0.28 98 1012.0
20260510005220 51 110 2.0 2.0 0.00 0.28 0.28 98 1012.1
20260510003719 51 103 2.0 2.0 0.00 0.28 0.28 98 1012.3
20260510002217 52 159 2.0 3.0 0.02 0.28 0.28 97 1012.3
20260510000713 52 237 3.0 4.0 0.02 0.27 0.27 97 1012.5
20260509235210 52 186 4.0 8.0 0.00 0.26 0.26 99 1012.3
20260509233707 53 188 2.0 6.0 0.02 0.26 0.26 99 1012.4
20260509232203 53 262 1.0 5.0 0.00 0.26 0.26 99 1012.4
20260509230700 53 194 5.0 5.0 0.02 0.26 0.26 99 1012.4
20260509225200 53 260 0.0 4.0 0.02 0.26 0.26 99 1012.4
20260509223656 53 254 0.0 5.0 0.00 0.25 0.25 99 1012.4
20260509222151 53 239 3.0 5.0 0.00 0.25 0.25 99 1012.3
20260509220651 53 281 3.0 7.0 0.02 0.25 0.25 99 1012.1
20260509215146 53 216 3.0 16.0 0.09 0.24 0.24 99 1012.1
20260509213643 54 223 5.0 12.0 0.24 0.22 0.22 99 1011.9
20260509212138 54 205 3.0 6.0 0.24 0.14 0.14 99 1012.1
20260509210634 54 253 2.0 9.0 0.02 0.09 0.09 98 1011.9
20260509205132 53 225 2.0 9.0 0.00 0.09 0.09 98 1011.9
20260509203632 54 262 2.0 5.0 0.02 0.09 0.09 98 1011.5
20260509202132 54 196 0.0 3.0 0.00 0.08 0.08 97 1011.4
20260509200632 54 180 1.0 5.0 0.33 0.08 0.08 96 1011.3
20260509195131 56 205 5.0 9.0 0.00 0.02 0.02 88 1011.6
20260509193629 57 220 11.0 14.0 0.00 0.02 0.02 86 1011.7
20260509192129 58 239 4.0 8.0 0.00 0.02 0.02 84 1011.7
20260509190628 59 162 3.0 8.0 0.00 0.02 0.02 81 1011.8
20260509185125 60 315 5.0 14.0 0.00 0.02 0.02 78 1011.8
20260509183622 59 222 3.0 11.0 0.00 0.02 0.02 79 1012.1
20260509182116 61 172 5.0 9.0 0.00 0.02 0.02 76 1011.8
20260509180614 59 112 0.0 9.0 0.00 0.02 0.02 79 1012.0
20260509175108 60 261 0.0 6.0 0.00 0.02 0.02 78 1011.8
20260509173607 57 236 0.0 11.0 0.00 0.02 0.02 81 1012.1
20260509172102 56 304 5.0 5.0 0.00 0.02 0.02 83 1012.1
20260509170556 57 217 4.0 10.0 0.00 0.02 0.02 81 1013.0
20260509165052 57 101 4.0 6.0 0.00 0.02 0.02 80 1012.6
20260509163548 58 270 0.0 8.0 0.00 0.02 0.02 78 1012.7
20260509162047 57 232 6.0 7.0 0.00 0.02 0.02 78 1012.9
20260509160546 59 214 7.0 10.0 0.00 0.02 0.02 75 1012.9
20260509155046 61 90 1.0 9.0 0.00 0.02 0.02 74 1013.0
20260509153543 60 282 2.0 9.0 0.00 0.02 0.02 76 1013.3
20260509152039 59 60 0.0 6.0 0.00 0.02 0.02 76 1013.3
20260509150536 58 16 0.0 5.0 0.00 0.02 0.02 76 1013.1
20260509145036 60 180 0.0 4.0 0.00 0.02 0.02 74 1013.2
20260509143534 60 142 3.0 7.0 0.00 0.02 0.02 74 1013.2
20260509142034 58 96 2.0 5.0 0.00 0.02 0.02 78 1012.9
20260509140530 59 135 3.0 6.0 0.00 0.02 0.02 78 1013.3
20260509135029 59 139 2.0 7.0 0.00 0.02 0.02 78 1013.5
20260509133525 56 120 0.0 4.0 0.00 0.02 0.02 85 1013.6
20260509132025 55 127 2.0 3.0 0.00 0.02 0.02 91 1014.1
20260509130525 54 133 3.0 3.0 0.00 0.02 0.02 93 1014.1
20260509125021 54 66 0.0 2.0 0.00 0.02 0.02 95 1013.8
20260509123519 52 85 2.0 6.0 0.00 0.02 0.02 96 1013.9
20260509122015 52 127 3.0 4.0 0.00 0.02 0.02 97 1013.9
20260509120513 51 36 2.0 5.0 0.00 0.02 0.02 98 1014.1
20260509115011 51 11 3.0 5.0 0.00 0.02 0.02 98 1013.5
20260509113512 51 35 1.0 3.0 0.02 0.02 0.02 98 1013.9
20260509112008 50 69 1.0 3.0 0.02 0.02 0.02 98 1014.3
20260509110504 49 57 1.0 2.0 0.00 0.01 0.01 97 1014.4
20260509105003 49 73 0.0 2.0 0.02 0.01 0.01 96 1014.3
20260509103500 49 18 0.0 2.0 0.00 0.00 0.00 96 1014.1
20260509101957 49 97 1.0 2.0 0.00 0.00 0.00 95 1014.0
20260509100454 49 159 0.0 2.0 0.00 0.00 0.00 94 1014.0
20260509094950 49 38 0.0 3.0 0.00 0.00 0.00 92 1014.0
20260509093447 48 195 0.0 3.0 0.00 0.00 0.00 95 1013.6
20260509091942 48 14 1.0 2.0 0.00 0.00 0.00 96 1013.4
20260509090438 48 74 2.0 3.0 0.00 0.00 0.00 96 1013.0
20260509084934 47 40 1.0 2.0 0.00 0.00 0.00 96 1012.9
20260509083432 47 30 2.0 2.0 0.00 0.00 0.00 95 1012.8
20260509081929 47 90 1.0 3.0 0.00 0.00 0.00 95 1013.2
20260509080427 46 74 0.0 2.0 0.00 0.00 0.00 94 1013.1
20260509074925 46 49 0.0 2.0 0.00 0.00 0.00 94 1013.1
20260509073421 47 28 2.0 3.0 0.00 0.00 0.00 93 1013.2
20260509071917 47 15 3.0 3.0 0.00 0.00 0.00 92 1013.6
20260509070413 47 121 0.0 2.0 0.00 0.00 0.00 91 1013.6
20260509064913 48 37 2.0 3.0 0.00 0.00 0.00 89 1013.7
20260509063409 49 220 1.0 3.0 0.00 0.00 0.00 89 1013.4
20260509061907 49 180 0.0 3.0 0.00 0.00 0.00 90 1013.7
20260509060404 49 169 0.0 1.0 0.00 0.00 0.00 88 1013.4
20260509054904 48 352 0.0 2.0 0.00 0.00 0.00 87 1013.4
20260509053401 48 349 0.0 2.0 0.00 0.00 0.00 87 1013.3
20260509051900 48 342 2.0 3.0 0.00 0.00 0.00 87 1013.4
20260509050357 48 352 0.0 2.0 0.00 0.00 0.00 86 1013.5
20260509044854 48 355 0.0 2.0 0.00 0.00 0.00 83 1013.2
20260509043350 48 187 1.0 2.0 0.00 0.00 0.00 79 1013.5
20260509041845 47 8 0.0 1.0 0.00 0.00 0.00 78 1013.2
20260509040344 48 352 0.0 2.0 0.00 0.00 0.00 75 1013.1
20260509034840 48 180 0.0 2.0 0.00 0.00 0.00 72 1013.0
20260509033338 49 172 0.0 2.0 0.00 0.00 0.00 69 1013.0
20260509031835 49 180 2.0 2.0 0.00 0.00 0.00 66 1013.1